Location: Igon
(43.1667°N, 0.2333°W)
Time: 10:12:21
(UTC+00:00)

Cosmos 1812 - Pass Details

Date: 29 November 2020
Orbit: 517 x 520 km, 82.5° (Epoch: 24 January)

Event Time Altitude Azimuth Distance (km) Brightness Sun altitude
Exits shadow 05:42:36 - 353° (N) 2,308 5.8 -15.7°
Reaches altitude 10° 05:43:55 10° 353° (N) 1,758 5.2 -15.5°
Maximum altitude 05:47:47 83° 80° (E) 529 2.7 -14.8°
Drops below altitude 10° 05:51:37 10° 170° (S) 1,745 5.7 -14.2°
Sets 05:53:44 0° 171° (S) 2,627 6.6 -13.8°
